Regional Weather Roundup
Issued by NWS Sioux Falls, SD

Home | Current Version | Previous Version | Graphics & Text | Print | Product List | Glossary Off
Versions: 1 2 3 4 5 6 7 8 9 10 11 12 13 14 15 16 17 18 19 20 21 22 23 24 25 26 27 28 29 30 31 32 33 34 35 36 37 38 39 40 41 42 43 44 45 46 47 48 49 50

000
ASUS43 KFSD 261210
RWRFSD

WEATHER ROUNDUP FOR SE SOUTH DAKOTA/SW MINNESOTA/NW IOWA
NATIONAL WEATHER SERVICE SIOUX FALLS SD
700 AM CDT THU APR 26 2018

NOTE: "FAIR" INDICATES FEW OR NO CLOUDS BELOW 12,000 FEET WITH NO
SIGNIFICANT WEATHER AND OR OBSTRUCTIONS TO VISIBILITY.


SDZ038>040-050-052>070-261300-
SOUTHEAST SOUTH DAKOTA

CITY           SKY/WX    TMP DP  RH WIND       PRES   REMARKS
BROOKINGS      MOCLDY    44  35  70 W7        29.88R
CHAMBERLAIN    CLOUDY    47  36  65 N17G24    29.95R
6HR MIN TEMP:  47; 6HR MAX TEMP:  52;

HURON          CLOUDY    43  35  73 N20G33    29.90R
6HR MIN TEMP:  43; 6HR MAX TEMP:  48;

MADISON        FAIR      43  36  75 SW12      29.85R
MITCHELL       CLOUDY    48  37  65 NW14      29.88R
6HR MIN TEMP:  43; 6HR MAX TEMP:  50;

SIOUX FALLS    CLOUDY    44  32  62 SW8       29.86R
6HR MIN TEMP:  42; 6HR MAX TEMP:  49;

WINNER         FAIR      46  34  62 N17       30.00R
YANKTON        CLOUDY    46  35  65 SW8       29.89R
$$

MNZ071-072-080-081-089-090-097-098-261300-
SOUTHWEST MINNESOTA

CITY           SKY/WX    TMP DP  RH WIND       PRES   REMARKS
FAIRMONT       CLOUDY    40  33  76 SW9       29.90R
JACKSON        CLOUDY    39  32  75 SW9       29.90R
LUVERNE        PTCLDY    37  32  81 S8        29.87S
MARSHALL       CLOUDY    46  33  60 W17       29.85R
6HR MIN TEMP:  41; 6HR MAX TEMP:  49;

MONTEVIDEO     CLOUDY    43  34  70 W6        29.84S
PIPESTONE      CLOUDY   N/A N/A N/A SW8       29.86R
REDWOOD FALLS  CLOUDY    37  33  85 CALM      29.85R
TRACY          CLOUDY    45  34  64 SW18      29.83R
WINDOM         CLOUDY    43  23  45 S8        29.87F
WORTHINGTON    CLOUDY    43  32  65 SW20      29.87F
$$

IAZ001>003-012>014-020>022-031-032-NEZ013-014-SDZ071-261300-
NORTHWEST IOWA

CITY           SKY/WX    TMP DP  RH WIND       PRES   REMARKS
CHEROKEE       CLOUDY    35  33  92 S3        29.94R
DENISON        CLOUDY    34  30  86 SE3       29.96F
ESTHERVILLE    CLOUDY    40  32  73 SW12      29.90R
LE MARS        CLOUDY    39  34  81 S7        29.92R
ORANGE CITY    CLOUDY    41  37  87 SW9       29.91S
SHELDON        CLOUDY    41  34  75 SW10      29.88F
SIOUX CITY     CLOUDY    43  33  68 SW8       29.94R
6HR MIN TEMP:  41; 6HR MAX TEMP:  47;

SPENCER        CLOUDY    38  31  76 SW7       29.91R
6HR MIN TEMP:  35; 6HR MAX TEMP:  41;

STORM LAKE     CLOUDY    37  32  81 SW9       29.92S
$$

ABBREVIATIONS USED IN REMARKS
   TC - TEMPERATURE IN CELSIUS
  WCI - WIND CHILL INDEX
   HX - HEAT INDEX
  VSB - VISIBILITY





USA.gov is the U.S. government's official web portal to all federal, state and local government web resources and services.